Monte Cimone, Italy

7:05 AM CEST on July 28, 2017 (GMT +0200)
Monte Cimone

Weather History for LIVC - September, 2013

Change the Weather History Date:

Monday, September 16, 2013

  Actual Average Record
Temperature  
Mean Temperature 48 °F -  
Max Temperature 53 °F 46 °F 62 °F (2011)
Min Temperature 42 °F 38 °F 30 °F (2008)
Degree Days  
Heating Degree Days 18    
Moisture  
Dew Point 42 °F    
Average Humidity 83    
Maximum Humidity 100    
Minimum Humidity 57    
Precipitation  
Precipitation 0.04 in 0.10 in - ()
Sea Level Pressure  
Sea Level Pressure 29.88 in    
Wind  
Wind Speed 21 mph ()    
Max Wind Speed 48 mph    
Max Gust Speed -    
Visibility 2.5 miles    
Events Fog , Rain    
Averages and records for this station are not official NWS values.
T = Trace of Precipitation, MM = Missing Value Source: Averaged Metar Reports

Daily Weather History Graph

Daily Weather History Graph

Search for Another Location

Airport or City:

Trip Planner

Search our weather history database for the weather conditions in past years. The results will help you decide how hot, cold, wet, or windy it might be!

Date:

Astronomy

Sep. 16, 2013 Rise Set
Actual Time 6:57 AM CEST 7:25 PM CEST
Civil Twilight 6:28 AM CEST 7:54 PM CEST
Nautical Twilight 5:53 AM CEST 8:29 PM CEST
Astronomical Twilight 5:18 AM CEST 9:04 PM CEST
Moon 5:28 PM CEST (9/16) 3:18 AM CEST (9/16)
Length of Visible Light 13h 26m
Length of Day
12h 28m
Waxing Gibbous, 88% of the Moon is Illuminated
Sep 16
Waxing Gibbous
Sep 19
Full
Sep 27
Last Quarter
Oct 5
New
Oct 12
First Quarter

Hourly Weather History & Observations

Time (CEST) Temp. Windchill Dew Point Humidity Pressure Visibility Wind Dir Wind Speed Gust Speed Precip Events Conditions
12:55 AM 44.6 °F 35.7 °F 41.0 °F 87% 29.95 in 0.0 mi SW 24.2 mph - N/A Fog Fog
1:55 AM 44.6 °F 34.7 °F 41.0 °F 87% 29.92 in 0.0 mi SW 29.9 mph - N/A Fog Fog
2:00 AM 45 °F - 42 °F 85%  in 0 mi SW 29.9 mph - - Fog Heavy Fog
2:55 AM 42.8 °F 31.9 °F 41.0 °F 93% 29.92 in 0.0 mi SW 32.2 mph - N/A Fog Fog
3:55 AM 44.6 °F 34.4 °F 41.0 °F 87% 29.92 in 0.0 mi SW 32.2 mph - N/A Fog Fog
4:55 AM 42.8 °F 31.9 °F 41.0 °F 93% 29.89 in 0.0 mi SW 32.2 mph - N/A Fog Fog
5:55 AM 42.8 °F 34.8 °F 39.2 °F 87% 29.89 in - NNW 17.3 mph - N/A   Clear
6:55 AM 42.8 °F 35.4 °F 37.4 °F 81% 29.89 in - NW 15.0 mph - N/A   Clear
7:55 AM 44.6 °F 38.8 °F 33.8 °F 66% 29.89 in - NW 11.5 mph - N/A   Clear
8:00 AM 44 °F - 34 °F 57%  in 19 mi NW 11.5 mph - -   Partly Cloudy
8:55 AM 44.6 °F 38.8 °F 33.8 °F 66% 29.92 in - NW 11.5 mph - N/A   Clear
9:55 AM 46.4 °F 41.5 °F 37.4 °F 71% 29.92 in - West 10.4 mph - N/A   Clear
10:55 AM 48.2 °F - 39.2 °F 71% 29.92 in - WSW 9.2 mph - N/A   Clear
11:55 AM 51.8 °F - 44.6 °F 76% 29.92 in 6.2 mi WSW 9.2 mph - N/A   Partly Cloudy
12:55 PM 51.8 °F - 44.6 °F 76% 29.95 in 6.2 mi WSW 5.8 mph - N/A   Partly Cloudy
1:55 PM 53.6 °F - 44.6 °F 72% 29.95 in 6.2 mi WSW 6.9 mph - N/A   Partly Cloudy
2:00 PM 53 °F - 45 °F 67%  in 6 mi WSW 6.9 mph - -   Scattered Clouds
2:55 PM 53.6 °F - 44.6 °F 72% 29.92 in 6.2 mi WSW 17.3 mph - N/A   Mostly Cloudy
3:55 PM 50.0 °F - 42.8 °F 76% 29.89 in 6.2 mi WSW 16.1 mph - N/A   Mostly Cloudy
4:55 PM 48.2 °F - 46.4 °F 93% 29.89 in 0.0 mi WSW 20.7 mph - N/A Fog Fog
5:55 PM 48.2 °F - 46.4 °F 93% 29.86 in 0.0 mi WSW 23.0 mph - N/A Fog Fog
6:55 PM 46.4 °F 37.4 °F 44.6 °F 93% 29.83 in 0.0 mi WSW 28.8 mph - N/A Fog Fog
7:55 PM 44.6 °F 34.4 °F 42.8 °F 93% 29.80 in 0.0 mi WSW 32.2 mph - N/A Fog Fog
8:00 PM 45 °F - 43 °F 88%  in 0 mi WSW 32.2 mph - - Fog Heavy Fog
8:55 PM 44.6 °F 33.3 °F 44.6 °F 100% 29.77 in 0.0 mi WSW 40.3 mph - N/A Fog Fog
9:55 PM 44.6 °F 32.7 °F 42.8 °F 93% 29.74 in 0.0 mi SW 46.0 mph - N/A Fog Fog
10:55 PM 42.8 °F 29.9 °F 42.8 °F 100% 29.74 in 0.0 mi SW 48.3 mph - N/A Fog Fog
11:55 PM 42.8 °F 30.0 °F 42.8 °F 100% 29.74 in 0.0 mi SW 47.2 mph - N/A Fog , Rain Light Rain